Regional Weather Roundup
Issued by NWS

Home | Current Version | Previous Version | Graphics & Text | Print | Product List | Glossary On
Versions: 1 2 3 4 5 6 7 8 9 10 11 12 13 14 15 16 17 18 19 20 21 22 23 24 25 26 27 28 29 30 31 32 33 34 35 36 37 38 39 40 41 42 43 44 45 46 47 48 49 50
000
ASUS43 KBIS 261020
RWRND

NORTH DAKOTA REGIONAL WEATHER ROUNDUP
NATIONAL WEATHER SERVICE BISMARCK ND
400 AM CST MON JAN 26 2015

NOTE: "FAIR" INDICATES FEW OR NO CLOUDS BELOW 12,000 FEET WITH NO
SIGNIFICANT WEATHER AND/OR OBSTRUCTIONS TO VISIBILITY.


NDZ001>003-009>011-017-261100-
NORTHWEST NORTH DAKOTA

CITY           SKY/WX    TMP DP  RH WIND       PRES   REMARKS
WILLISTON      CLOUDY    38  32  79 SW8       29.89R
MINOT          PTCLDY    38  30  73 W17       29.77S
MINOT AFB      PTCLDY    37  35  94 NW21      29.76S
$$

NDZ018>021-031>035-040>046-261100-
SOUTHWEST NORTH DAKOTA

CITY           SKY/WX    TMP DP  RH WIND       PRES   REMARKS
BISMARCK       CLEAR     41  32  70 NW13      29.82S
DICKINSON      CLOUDY    38  33  82 W10       29.87R
GARRISON         N/A     39  33  79 NW20      29.80S
HETTINGER ARPT PTCLDY    35  31  85 W7        29.91R
$$

NDZ004>008-012>016-024-026-027-054-261100-
NORTHEAST NORTH DAKOTA

CITY           SKY/WX    TMP DP  RH WIND       PRES   REMARKS
GRAND FORKS    CLEAR     35  30  82 NW12      29.62R
GRND FRKS AFB  CLEAR     38  31  74 NW13G21   29.63R
DEVILS LAKE    CLEAR     36  30  80 W21       29.68S
$$

NDZ022-023-025-028>030-036>039-047>053-261100-
SOUTHEAST NORTH DAKOTA

CITY           SKY/WX    TMP DP  RH WIND       PRES   REMARKS
FARGO          CLEAR     32  28  85 SW9       29.65F
JAMESTOWN      CLOUDY    38  32  79 NW15      29.71R
$$



USA.gov is the U.S. government's official web portal to all federal, state and local government web resources and services.